Location: Lane
(33.5226°N, 79.8788°W)
Time: 19:11:18
(UTC+00:00)

Explorer 11/Cluster Stage 4 - Pass Details

Date: 30 September 2022
Orbit: 466 x 1247 km, 28.8° (Epoch: 01 December)

Event Time Altitude Azimuth Distance (km) Brightness Sun altitude
Rises 23:23:13 0° 264° (W) 3,198 12.5 -4.6°
Reaches altitude 10° 23:27:01 10° 240° (WSW) 2,084 9.9 -5.4°
Maximum altitude 23:29:24 14° 210° (SSW) 1,739 8.8 -5.9°
Drops below altitude 10° 23:31:36 10° 179° (S) 1,875 8.5 -6.3°
Sets 23:34:42 0° 152° (SSE) 2,645 9.0 -7.0°
